Weather History for KFSE - October, 2011

Change the Weather History Date:

Sunday, October 9, 2011

  Actual Average Record
Temperature  
Mean Temperature 50 °F -  
Max Temperature 57 °F 57 °F 86 °F (2010)
Min Temperature 42 °F 33 °F 18 °F (1993)
Degree Days  
Heating Degree Days 16    
Moisture  
Dew Point 45 °F    
Average Humidity 78    
Maximum Humidity 88    
Minimum Humidity 67    
Precipitation  
Precipitation 0.01 in - - ()
Sea Level Pressure  
Sea Level Pressure 30.18 in    
Wind  
Wind Speed 2 mph (ENE)    
Max Wind Speed 13 mph    
Max Gust Speed 18 mph    
Visibility 10 miles    
Events Rain    
Averages and records for this station are not official NWS values.
T = Trace of Precipitation, MM = Missing Value Source: NWS Daily Summary

Daily Weather History Graph

Daily Weather History Graph

Search for Another Location

Airport or City:

Trip Planner

Search our weather history database for the weather conditions in past years. The results will help you decide how hot, cold, wet, or windy it might be!

Date:

Astronomy

Oct. 09, 2011 Rise Set
Actual Time 7:32 AM CDT 6:47 PM CDT
Civil Twilight 7:02 AM CDT 7:17 PM CDT
Nautical Twilight 6:26 AM CDT 7:53 PM CDT
Astronomical Twilight 5:50 AM CDT 8:29 PM CDT
Moon 5:28 PM CDT (10/9) 5:12 AM CDT (10/9)
Length of Visible Light 12h 15m
Length of Day
11h 14m
Waxing Gibbous, 95% of the Moon is Illuminated
Oct 9
Waxing Gibbous
Oct 11
Full
Oct 19
Last Quarter
Oct 26
New
Nov 2
First Quarter

Hourly Weather History & Observations

Time (CDT) Temp. Windchill Dew Point Humidity Pressure Visibility Wind Dir Wind Speed Gust Speed Precip Events Conditions
12:13 AM 50.0 °F - 41.0 °F 71% 30.16 in 10.0 mi Calm Calm - N/A   Mostly Cloudy
12:33 AM 50.0 °F - 42.8 °F 76% 30.15 in 10.0 mi Calm Calm - N/A   Mostly Cloudy
12:53 AM 50.0 °F - 42.8 °F 76% 30.17 in 10.0 mi Calm Calm - N/A   Scattered Clouds
1:12 AM 50.0 °F - 42.8 °F 76% 30.17 in 10.0 mi Calm Calm - N/A   Scattered Clouds
1:33 AM 48.2 °F - 41.0 °F 76% 30.18 in 10.0 mi Calm Calm - N/A   Clear
1:53 AM 46.4 °F - 39.2 °F 76% 30.18 in 10.0 mi Calm Calm - N/A   Clear
2:13 AM 48.2 °F - 42.8 °F 82% 30.19 in 10.0 mi Calm Calm - N/A   Clear
2:33 AM 46.4 °F - 42.8 °F 87% 30.19 in 10.0 mi Calm Calm - N/A   Clear
2:53 AM 46.4 °F - 37.4 °F 71% 30.19 in 10.0 mi Calm Calm - N/A   Clear
3:13 AM 46.4 °F - 39.2 °F 76% 30.20 in 10.0 mi Calm Calm - N/A   Clear
3:33 AM 44.6 °F - 37.4 °F 76% 30.21 in 10.0 mi Calm Calm - N/A   Clear
4:13 AM 42.8 °F - 39.2 °F 87% 30.20 in 10.0 mi Calm Calm - N/A   Clear
4:33 AM 42.8 °F - 37.4 °F 81% 30.22 in 10.0 mi Calm Calm - N/A   Clear
4:53 AM 42.8 °F - 39.2 °F 87% 30.21 in 10.0 mi Calm Calm - N/A   Clear
5:13 AM 44.6 °F - 37.4 °F 76% 30.21 in 10.0 mi Calm Calm - N/A   Clear
5:33 AM 44.6 °F - 37.4 °F 76% 30.22 in 10.0 mi Calm Calm - N/A   Clear
6:13 AM 44.6 °F - 39.2 °F 81% 30.24 in 10.0 mi Calm Calm - N/A   Clear
6:33 AM 44.6 °F - 37.4 °F 76% 30.24 in 10.0 mi Calm Calm - N/A   Clear
6:53 AM 44.6 °F 42.2 °F 37.4 °F 76% 30.23 in 10.0 mi ENE 4.6 mph - N/A   Clear
7:13 AM 46.4 °F 44.3 °F 37.4 °F 71% 30.24 in 10.0 mi ENE 4.6 mph - N/A   Clear
7:53 AM 46.4 °F - 39.2 °F 76% 30.25 in 10.0 mi Calm Calm - N/A   Clear
8:13 AM 46.4 °F - 39.2 °F 76% 30.26 in 10.0 mi Calm Calm - N/A   Clear
8:33 AM 46.4 °F - 41.0 °F 81% 30.26 in 10.0 mi Calm Calm - N/A   Clear
8:53 AM 48.2 °F - 42.8 °F 82% 30.27 in 10.0 mi Calm Calm - N/A   Clear
9:13 AM 50.0 °F - 44.6 °F 82% 30.27 in 10.0 mi Calm Calm - N/A   Clear
9:33 AM 51.8 °F - 46.4 °F 82% 30.27 in 10.0 mi NE 5.8 mph - N/A   Clear
9:53 AM 51.8 °F - 46.4 °F 82% 30.27 in 10.0 mi ENE 8.1 mph - N/A   Scattered Clouds
10:13 AM 53.6 °F - 46.4 °F 77% 30.27 in 10.0 mi ENE 3.5 mph - N/A   Mostly Cloudy
10:33 AM 53.6 °F - 46.4 °F 77% 30.26 in 10.0 mi ENE 9.2 mph - N/A   Scattered Clouds
10:53 AM 53.6 °F - 46.4 °F 77% 30.25 in 10.0 mi ENE 9.2 mph - N/A   Mostly Cloudy
11:13 AM 53.6 °F - 46.4 °F 77% 30.25 in 10.0 mi Calm Calm - N/A   Overcast
11:33 AM 55.4 °F - 46.4 °F 72% 30.24 in 10.0 mi ENE 4.6 mph - N/A   Mostly Cloudy
11:53 AM 55.4 °F - 46.4 °F 72% 30.24 in 10.0 mi ENE 8.1 mph - N/A   Scattered Clouds
12:13 PM 55.4 °F - 46.4 °F 72% 30.23 in 10.0 mi Calm Calm - N/A Rain Light Rain
12:33 PM 55.4 °F - 44.6 °F 67% 30.23 in 10.0 mi ENE 5.8 mph - N/A Rain Light Rain
12:53 PM 55.4 °F - 44.6 °F 67% 30.24 in 7.0 mi ENE 3.5 mph - N/A Rain Light Rain
1:13 PM 53.6 °F - 46.4 °F 77% 30.22 in 10.0 mi Calm Calm - 0.01 in Rain Light Rain
1:33 PM 55.4 °F - 48.2 °F 77% 30.21 in 10.0 mi Calm Calm - 0.01 in Rain Light Rain
1:53 PM 55.4 °F - 50.0 °F 82% 30.19 in 10.0 mi ENE 6.9 mph - 0.01 in Rain Light Rain
1:55 PM 55.4 °F - 50.0 °F 82% 30.18 in 10.0 mi Calm Calm - 0.01 in Rain Light Rain
2:13 PM 53.6 °F - 50.0 °F 88% 30.17 in 10.0 mi ENE 6.9 mph - N/A   Light Drizzle
2:33 PM 55.4 °F - 51.8 °F 88% 30.18 in 10.0 mi Calm Calm - N/A   Mostly Cloudy
3:13 PM 55.4 °F - 51.8 °F 88% 30.17 in 10.0 mi ENE 3.5 mph - N/A   Overcast
3:33 PM 55.4 °F - 48.2 °F 77% 30.16 in 10.0 mi Calm Calm - N/A   Overcast
3:53 PM 55.4 °F - 48.2 °F 77% 30.16 in 10.0 mi ENE 6.9 mph - N/A   Overcast
4:13 PM 55.4 °F - 48.2 °F 77% 30.14 in 10.0 mi ENE 6.9 mph - N/A Rain Light Rain
4:33 PM 55.4 °F - 48.2 °F 77% 30.13 in 10.0 mi ENE 9.2 mph - N/A Rain Light Rain
4:53 PM 55.4 °F - 48.2 °F 77% 30.12 in 10.0 mi ENE 12.7 mph - N/A   Mostly Cloudy
5:13 PM 57.2 °F - 48.2 °F 72% 30.11 in 10.0 mi ENE 8.1 mph 17.3 mph N/A   Mostly Cloudy
5:33 PM 57.2 °F - 48.2 °F 72% 30.10 in 10.0 mi East 6.9 mph - N/A   Mostly Cloudy
6:33 PM 55.4 °F - 48.2 °F 77% 30.09 in 10.0 mi East 9.2 mph - N/A   Overcast
6:53 PM 55.4 °F - 48.2 °F 77% 30.09 in 10.0 mi East 3.5 mph - N/A   Mostly Cloudy
7:53 PM 55.4 °F - 48.2 °F 77% 30.07 in 10.0 mi East 5.8 mph - N/A   Scattered Clouds
8:13 PM 55.4 °F - 48.2 °F 77% 30.07 in 10.0 mi East 10.4 mph - N/A   Clear
8:33 PM 55.4 °F - 48.2 °F 77% 30.06 in 10.0 mi East 6.9 mph - N/A   Scattered Clouds
8:53 PM 55.4 °F - 48.2 °F 77% 30.05 in 10.0 mi ESE 8.1 mph - N/A   Scattered Clouds
9:13 PM 55.4 °F - 50.0 °F 82% 30.05 in 10.0 mi ESE 10.4 mph 17.3 mph N/A   Scattered Clouds
9:32 PM 55.4 °F - 50.0 °F 82% 30.04 in 10.0 mi ESE 11.5 mph 16.1 mph N/A   Scattered Clouds
9:53 PM 55.4 °F - 51.8 °F 88% 30.04 in 10.0 mi ESE 9.2 mph 18.4 mph N/A   Mostly Cloudy
10:13 PM 55.4 °F - 51.8 °F 88% 30.04 in 10.0 mi ESE 12.7 mph 20.7 mph N/A   Scattered Clouds
10:33 PM 57.2 °F - 51.8 °F 82% 30.03 in 10.0 mi ESE 13.8 mph 18.4 mph N/A   Clear
10:53 PM 55.4 °F - 51.8 °F 88% 30.03 in 10.0 mi ESE 13.8 mph 21.9 mph N/A   Clear
11:13 PM 57.2 °F - 51.8 °F 82% 30.03 in 10.0 mi ESE 12.7 mph 20.7 mph N/A   Clear
11:32 PM 55.4 °F - 51.8 °F 88% 30.03 in 10.0 mi ESE 12.7 mph 19.6 mph N/A   Scattered Clouds
11:53 PM 55.4 °F - 51.8 °F 88% 30.02 in 10.0 mi ESE 11.5 mph 19.6 mph N/A   Scattered Clouds